| time (UTC) | temp C | wind direction | speed KPH | gust KPH | rain 1hr cm | rain 24hr cm | rain mn cm | humidity % | barometer mb |
| 20260906201025 | 27 | 139 | 4.8 | 20.9 | 0.00 | 0.00 | 0.00 | 64 | 1018.3 |
| 20260906200529 | 28 | 193 | 3.2 | 16.1 | 0.00 | 0.00 | 0.00 | 63 | 1018.4 |
| 20260906200054 | 28 | 172 | 3.2 | 16.1 | 0.00 | 0.00 | 0.00 | 62 | 1018.3 |
| 20260906195527 | 27 | 138 | 4.8 | 16.1 | 0.00 | 0.00 | 0.00 | 64 | 1018.3 |
| 20260906195028 | 27 | 167 | 6.4 | 14.5 | 0.00 | 0.00 | 0.00 | 64 | 1018.4 |
| 20260906194549 | 27 | 79 | 3.2 | 14.5 | 0.00 | 0.00 | 0.00 | 67 | 1018.4 |
| 20260906194027 | 28 | 113 | 3.2 | 12.9 | 0.00 | 0.00 | 0.00 | 67 | 1018.4 |
| 20260906193529 | 27 | 130 | 3.2 | 12.9 | 0.00 | 0.00 | 0.00 | 66 | 1018.4 |
| 20260906193050 | 27 | 124 | 4.8 | 14.5 | 0.00 | 0.00 | 0.00 | 67 | 1018.2 |
| 20260906192528 | 27 | 117 | 6.4 | 14.5 | 0.00 | 0.00 | 0.00 | 66 | 1018.3 |
| 20260906192028 | 27 | 172 | 3.2 | 12.9 | 0.00 | 0.00 | 0.00 | 67 | 1018.4 |
| 20260906191557 | 27 | 104 | 1.6 | 11.3 | 0.00 | 0.00 | 0.00 | 69 | 1018.5 |
| 20260906191027 | 27 | 93 | 4.8 | 12.9 | 0.00 | 0.00 | 0.00 | 69 | 1018.5 |
| 20260906190528 | 27 | 27 | 3.2 | 12.9 | 0.00 | 0.00 | 0.00 | 69 | 1018.5 |
| 20260906190107 | 27 | 167 | 4.8 | 17.7 | 0.00 | 0.00 | 0.00 | 69 | 1018.5 |
| 20260906185528 | 27 | 120 | 3.2 | 17.7 | 0.00 | 0.00 | 0.00 | 69 | 1018.6 |
| 20260906185027 | 27 | 95 | 1.6 | 14.5 | 0.00 | 0.00 | 0.00 | 68 | 1018.5 |
| 20260906184550 | 27 | 75 | 3.2 | 16.1 | 0.00 | 0.00 | 0.00 | 69 | 1018.5 |
| 20260906184027 | 27 | 96 | 3.2 | 16.1 | 0.00 | 0.00 | 0.00 | 69 | 1018.5 |
| 20260906183529 | 27 | 115 | 4.8 | 16.1 | 0.00 | 0.00 | 0.00 | 69 | 1018.4 |
| 20260906183104 | 27 | 130 | 4.8 | 14.5 | 0.00 | 0.00 | 0.00 | 68 | 1018.7 |
| 20260906182529 | 27 | 96 | 3.2 | 14.5 | 0.00 | 0.00 | 0.00 | 68 | 1018.5 |
| 20260906182032 | 27 | 51 | 3.2 | 14.5 | 0.00 | 0.00 | 0.00 | 73 | 1018.8 |
| 20260906181601 | 27 | 18 | 6.4 | 16.1 | 0.00 | 0.00 | 0.00 | 72 | 1018.9 |
| 20260906181028 | 26 | 22 | 4.8 | 16.1 | 0.00 | 0.00 | 0.00 | 73 | 1018.9 |
| 20260906180529 | 26 | 122 | 4.8 | 12.9 | 0.00 | 0.00 | 0.00 | 72 | 1018.9 |
| 20260906180112 | 27 | 0 | 3.2 | 11.3 | 0.00 | 0.00 | 0.00 | 70 | 1018.9 |
| 20260906175530 | 27 | 165 | 1.6 | 11.3 | 0.00 | 0.00 | 0.00 | 68 | 1018.9 |
| 20260906175029 | 27 | 109 | 4.8 | 12.9 | 0.00 | 0.00 | 0.00 | 68 | 1018.8 |
| 20260906174549 | 27 | 129 | 4.8 | 12.9 | 0.00 | 0.00 | 0.00 | 69 | 1018.8 |
| 20260906174029 | 27 | 112 | 4.8 | 12.9 | 0.00 | 0.00 | 0.00 | 69 | 1018.8 |
| 20260906173529 | 27 | 141 | 3.2 | 11.3 | 0.00 | 0.00 | 0.00 | 69 | 1018.9 |
| 20260906173048 | 27 | 61 | 1.6 | 11.3 | 0.00 | 0.00 | 0.00 | 70 | 1018.9 |
| 20260906172529 | 27 | 164 | 3.2 | 9.7 | 0.00 | 0.00 | 0.00 | 70 | 1019.1 |
| 20260906172028 | 27 | 58 | 1.6 | 9.7 | 0.00 | 0.00 | 0.00 | 70 | 1019.2 |
| 20260906171600 | 27 | 50 | 1.6 | 9.7 | 0.00 | 0.00 | 0.00 | 71 | 1019.1 |
| 20260906171030 | 27 | 174 | 1.6 | 9.7 | 0.00 | 0.00 | 0.00 | 71 | 1019.3 |
| 20260906170528 | 27 | 109 | 1.6 | 9.7 | 0.00 | 0.00 | 0.00 | 70 | 1019.4 |
| 20260906170118 | 26 | 353 | 3.2 | 9.7 | 0.00 | 0.00 | 0.00 | 71 | 1019.4 |
| 20260906165527 | 26 | 124 | 1.6 | 9.7 | 0.00 | 0.00 | 0.00 | 71 | 1019.5 |
| 20260906165039 | 26 | 135 | 1.6 | 6.4 | 0.00 | 0.00 | 0.00 | 72 | 1019.5 |
| 20260906164548 | 26 | 117 | 3.2 | 9.7 | 0.00 | 0.00 | 0.00 | 72 | 1019.4 |
| 20260906164029 | 26 | 249 | 3.2 | 9.7 | 0.00 | 0.00 | 0.00 | 73 | 1019.4 |
| 20260906163528 | 26 | 218 | 1.6 | 6.4 | 0.00 | 0.00 | 0.00 | 73 | 1019.6 |
| 20260906163057 | 26 | 131 | 1.6 | 8.0 | 0.00 | 0.00 | 0.00 | 73 | 1019.7 |
| 20260906162528 | 26 | 139 | 1.6 | 12.9 | 0.00 | 0.00 | 0.00 | 75 | 1019.6 |
| 20260906162028 | 25 | 81 | 3.2 | 12.9 | 0.00 | 0.00 | 0.00 | 75 | 1019.7 |
| 20260906161557 | 25 | 178 | 1.6 | 6.4 | 0.00 | 0.00 | 0.00 | 75 | 1019.7 |
| 20260906161028 | 25 | 133 | 1.6 | 6.4 | 0.00 | 0.00 | 0.00 | 77 | 1019.6 |
| 20260906160527 | 25 | 207 | 3.2 | 9.7 | 0.00 | 0.00 | 0.00 | 77 | 1019.6 |
| 20260906160055 | 25 | 181 | 3.2 | 9.7 | 0.00 | 0.00 | 0.00 | 78 | 1019.6 |
| 20260906155530 | 24 | 168 | 3.2 | 8.0 | 0.00 | 0.00 | 0.00 | 79 | 1019.7 |
| 20260906155028 | 24 | 216 | 1.6 | 8.0 | 0.00 | 0.00 | 0.00 | 80 | 1019.6 |
| 20260906154558 | 23 | 205 | 3.2 | 12.9 | 0.00 | 0.00 | 0.00 | 81 | 1019.6 |
| 20260906154028 | 23 | 207 | 3.2 | 12.9 | 0.00 | 0.00 | 0.00 | 82 | 1019.5 |
| 20260906153529 | 23 | 147 | 3.2 | 12.9 | 0.00 | 0.00 | 0.00 | 83 | 1019.4 |
| 20260906153056 | 22 | 120 | 1.6 | 8.0 | 0.00 | 0.00 | 0.00 | 85 | 1019.4 |
| 20260906152530 | 22 | 139 | 3.2 | 8.0 | 0.00 | 0.00 | 0.00 | 85 | 1019.3 |
| 20260906152027 | 22 | 150 | 3.2 | 11.3 | 0.00 | 0.00 | 0.00 | 85 | 1019.4 |
| 20260906151608 | 22 | 218 | 3.2 | 11.3 | 0.00 | 0.00 | 0.00 | 85 | 1019.4 |
| 20260906151029 | 21 | 140 | 1.6 | 8.0 | 0.00 | 0.00 | 0.00 | 87 | 1019.5 |
| 20260906150527 | 21 | 194 | 3.2 | 8.0 | 0.00 | 0.00 | 0.00 | 88 | 1019.5 |
| 20260906150107 | 21 | 157 | 1.6 | 8.0 | 0.00 | 0.00 | 0.00 | 88 | 1019.5 |
| 20260906145529 | 21 | 170 | 1.6 | 4.8 | 0.00 | 0.00 | 0.00 | 89 | 1019.5 |
| 20260906145029 | 20 | 165 | 1.6 | 8.0 | 0.00 | 0.00 | 0.00 | 90 | 1019.6 |
| 20260906144559 | 20 | 143 | 1.6 | 9.7 | 0.00 | 0.00 | 0.00 | 90 | 1019.7 |
| 20260906144027 | 20 | 191 | 3.2 | 9.7 | 0.00 | 0.00 | 0.00 | 90 | 1019.8 |
| 20260906143529 | 20 | 174 | 1.6 | 4.8 | 0.00 | 0.00 | 0.00 | 90 | 1019.7 |
| 20260906143124 | 20 | 160 | 1.6 | 4.8 | 0.00 | 0.00 | 0.00 | 91 | 1019.8 |
| 20260906142528 | 20 | 100 | 1.6 | 8.0 | 0.00 | 0.00 | 0.00 | 91 | 1020.0 |
| 20260906142027 | 20 | 169 | 1.6 | 8.0 | 0.00 | 0.00 | 0.00 | 91 | 1019.9 |
| 20260906141557 | 20 | 145 | 1.6 | 6.4 | 0.00 | 0.00 | 0.00 | 91 | 1020.1 |
| 20260906141031 | 20 | 124 | 1.6 | 6.4 | 0.00 | 0.00 | 0.00 | 91 | 1020.2 |
| 20260906140529 | 20 | 127 | 0.0 | 6.4 | 0.00 | 0.00 | 0.00 | 91 | 1020.3 |
| 20260906140050 | 19 | 0 | 0.0 | 4.8 | 0.00 | 0.00 | 0.00 | 91 | 1020.3 |
| 20260906135528 | 19 | 116 | 0.0 | 4.8 | 0.00 | 0.00 | 0.00 | 92 | 1020.4 |
| 20260906135026 | 19 | 145 | 0.0 | 3.2 | 0.00 | 0.00 | 0.00 | 92 | 1020.5 |
| 20260906134632 | 19 | 0 | 0.0 | 3.2 | 0.00 | 0.00 | 0.00 | 92 | 1020.6 |
| 20260906134028 | 19 | 0 | 0.0 | 3.2 | 0.00 | 0.00 | 0.00 | 92 | 1020.8 |
| 20260906133529 | 18 | 0 | 0.0 | 4.8 | 0.00 | 0.00 | 0.00 | 93 | 1020.7 |
| 20260906133051 | 18 | 0 | 0.0 | 4.8 | 0.00 | 0.00 | 0.00 | 93 | 1020.8 |
| 20260906132528 | 18 | 75 | 0.0 | 4.8 | 0.00 | 0.00 | 0.00 | 93 | 1020.8 |
| 20260906132028 | 18 | 0 | 0.0 | 3.2 | 0.00 | 0.00 | 0.00 | 93 | 1020.5 |
| 20260906131556 | 18 | 91 | 0.0 | 3.2 | 0.00 | 0.00 | 0.00 | 93 | 1020.3 |
| 20260906131027 | 18 | 38 | 0.0 | 4.8 | 0.00 | 0.00 | 0.00 | 94 | 1020.2 |
| 20260906130528 | 18 | 0 | 0.0 | 4.8 | 0.00 | 0.00 | 0.00 | 94 | 1020.2 |
| 20260906130057 | 18 | 35 | 0.0 | 3.2 | 0.00 | 0.00 | 0.00 | 94 | 1020.2 |
| 20260906125531 | 18 | 39 | 0.0 | 4.8 | 0.00 | 0.00 | 0.00 | 94 | 1020.1 |
| 20260906125031 | 18 | 91 | 0.0 | 4.8 | 0.00 | 0.00 | 0.00 | 94 | 1020.1 |
| 20260906124558 | 17 | 103 | 0.0 | 3.2 | 0.00 | 0.00 | 0.00 | 94 | 1019.9 |
| 20260906124030 | 17 | 112 | 0.0 | 3.2 | 0.00 | 0.00 | 0.00 | 94 | 1020.0 |
| 20260906123527 | 17 | 0 | 0.0 | 4.8 | 0.00 | 0.00 | 0.00 | 94 | 1019.9 |
| 20260906123115 | 17 | 100 | 0.0 | 4.8 | 0.00 | 0.00 | 0.00 | 94 | 1019.7 |
| 20260906122528 | 17 | 102 | 0.0 | 3.2 | 0.00 | 0.00 | 0.00 | 94 | 1019.5 |
| 20260906122029 | 17 | 0 | 0.0 | 3.2 | 0.00 | 0.00 | 0.00 | 94 | 1019.7 |
| 20260906121548 | 17 | 0 | 0.0 | 6.4 | 0.00 | 0.00 | 0.00 | 94 | 1019.5 |
| 20260906121028 | 17 | 103 | 0.0 | 6.4 | 0.00 | 0.00 | 0.00 | 94 | 1019.3 |
| 20260906120528 | 17 | 136 | 0.0 | 6.4 | 0.00 | 0.00 | 0.00 | 95 | 1019.5 |
| 20260906120109 | 17 | 0 | 0.0 | 4.8 | 0.00 | 0.00 | 0.00 | 95 | 1019.5 |
| 20260906115528 | 17 | 0 | 0.0 | 1.6 | 0.00 | 0.00 | 0.00 | 95 | 1019.5 |
| 20260906115027 | 17 | 0 | 0.0 | 1.6 | 0.00 | 0.00 | 0.00 | 95 | 1019.6 |
| 20260906114558 | 17 | 0 | 0.0 | 1.6 | 0.00 | 0.00 | 0.00 | 95 | 1019.7 |
| 20260906114026 | 17 | 0 | 0.0 | 4.8 | 0.00 | 0.00 | 0.00 | 95 | 1019.5 |
| 20260906113527 | 17 | 0 | 0.0 | 4.8 | 0.00 | 0.00 | 0.00 | 95 | 1019.4 |
| 20260906113052 | 17 | 0 | 0.0 | 3.2 | 0.00 | 0.00 | 0.00 | 94 | 1019.4 |
| 20260906112528 | 17 | 0 | 0.0 | 1.6 | 0.00 | 0.00 | 0.00 | 95 | 1019.2 |
| 20260906112029 | 17 | 0 | 0.0 | 1.6 | 0.00 | 0.00 | 0.00 | 95 | 1019.1 |
| 20260906111548 | 17 | 0 | 0.0 | 3.2 | 0.00 | 0.00 | 0.00 | 95 | 1019.2 |
| 20260906111029 | 17 | 0 | 0.0 | 4.8 | 0.00 | 0.00 | 0.00 | 95 | 1019.1 |
| 20260906110529 | 17 | 154 | 0.0 | 4.8 | 0.00 | 0.00 | 0.00 | 95 | 1018.9 |
| 20260906110056 | 17 | 0 | 0.0 | 4.8 | 0.00 | 0.00 | 0.00 | 95 | 1018.9 |
| 20260906105527 | 17 | 0 | 0.0 | 4.8 | 0.00 | 0.00 | 0.00 | 95 | 1019.0 |
| 20260906105028 | 17 | 120 | 1.6 | 3.2 | 0.00 | 0.00 | 0.00 | 95 | 1019.1 |
| 20260906104556 | 17 | 0 | 0.0 | 1.6 | 0.00 | 0.00 | 0.00 | 95 | 1019.2 |
| 20260906104031 | 17 | 0 | 0.0 | 3.2 | 0.00 | 0.00 | 0.00 | 95 | 1019.2 |
| 20260906103530 | 17 | 0 | 0.0 | 3.2 | 0.00 | 0.00 | 0.00 | 95 | 1019.3 |
| 20260906103059 | 17 | 0 | 0.0 | 1.6 | 0.00 | 0.00 | 0.00 | 95 | 1019.3 |
| 20260906102528 | 17 | 0 | 0.0 | 1.6 | 0.00 | 0.00 | 0.00 | 95 | 1019.3 |
| 20260906102027 | 17 | 0 | 0.0 | 0.0 | 0.00 | 0.00 | 0.00 | 95 | 1019.2 |
| 20260906101548 | 17 | 0 | 0.0 | 0.0 | 0.00 | 0.00 | 0.00 | 95 | 1019.1 |
| 20260906101028 | 17 | 0 | 0.0 | 0.0 | 0.00 | 0.00 | 0.00 | 95 | 1019.1 |
| 20260906100527 | 17 | 0 | 0.0 | 0.0 | 0.00 | 0.00 | 0.00 | 95 | 1018.9 |
| 20260906100057 | 17 | 0 | 0.0 | 0.0 | 0.00 | 0.00 | 0.00 | 95 | 1019.0 |
| 20260906095527 | 17 | 0 | 0.0 | 0.0 | 0.00 | 0.00 | 0.00 | 95 | 1019.0 |
| 20260906095031 | 17 | 0 | 0.0 | 0.0 | 0.00 | 0.00 | 0.00 | 95 | 1018.8 |
| 20260906094604 | 17 | 0 | 0.0 | 0.0 | 0.00 | 0.00 | 0.00 | 94 | 1018.8 |
| 20260906094028 | 17 | 0 | 0.0 | 0.0 | 0.00 | 0.00 | 0.00 | 94 | 1018.8 |
| 20260906093528 | 17 | 0 | 0.0 | 0.0 | 0.00 | 0.00 | 0.00 | 94 | 1018.7 |
| 20260906093050 | 17 | 0 | 0.0 | 1.6 | 0.00 | 0.00 | 0.00 | 94 | 1018.6 |
| 20260906092527 | 17 | 0 | 0.0 | 1.6 | 0.00 | 0.00 | 0.00 | 94 | 1018.5 |
| 20260906092029 | 17 | 0 | 0.0 | 1.6 | 0.00 | 0.00 | 0.00 | 94 | 1018.5 |
| 20260906091605 | 17 | 0 | 0.0 | 3.2 | 0.00 | 0.00 | 0.00 | 94 | 1018.4 |
| 20260906091027 | 17 | 0 | 0.0 | 3.2 | 0.00 | 0.00 | 0.00 | 94 | 1018.4 |
| 20260906090528 | 17 | 65 | 0.0 | 3.2 | 0.00 | 0.00 | 0.00 | 94 | 1018.2 |
| 20260906090055 | 17 | 85 | 0.0 | 3.2 | 0.00 | 0.00 | 0.00 | 94 | 1018.2 |
| 20260906085532 | 17 | 116 | 0.0 | 3.2 | 0.00 | 0.00 | 0.00 | 94 | 1018.3 |
| 20260906085028 | 17 | 0 | 0.0 | 4.8 | 0.00 | 0.00 | 0.00 | 94 | 1018.3 |
| 20260906084559 | 17 | 0 | 0.0 | 4.8 | 0.00 | 0.00 | 0.00 | 94 | 1018.2 |
| 20260906084030 | 17 | 0 | 0.0 | 4.8 | 0.00 | 0.00 | 0.00 | 94 | 1018.2 |
| 20260906083528 | 17 | 134 | 0.0 | 6.4 | 0.00 | 0.00 | 0.00 | 94 | 1018.3 |
| 20260906083051 | 17 | 118 | 0.0 | 6.4 | 0.00 | 0.00 | 0.00 | 94 | 1018.4 |
| 20260906082527 | 17 | 117 | 0.0 | 3.2 | 0.00 | 0.00 | 0.00 | 94 | 1018.4 |
| 20260906082027 | 17 | 0 | 0.0 | 3.2 | 0.00 | 0.00 | 0.00 | 94 | 1018.5 |
| 20260906081558 | 17 | 113 | 0.0 | 1.6 | 0.00 | 0.00 | 0.00 | 94 | 1018.6 |
| 20260906081028 | 17 | 114 | 0.0 | 1.6 | 0.00 | 0.00 | 0.00 | 94 | 1018.6 |
| 20260906080529 | 17 | 0 | 0.0 | 1.6 | 0.00 | 0.00 | 0.00 | 94 | 1018.5 |
| 20260906075528 | 17 | 0 | 0.0 | 4.8 | 0.00 | 0.00 | 0.00 | 94 | 1018.6 |
| 20260906075027 | 17 | 113 | 0.0 | 4.8 | 0.00 | 0.00 | 0.00 | 94 | 1018.8 |
| 20260906074553 | 17 | 0 | 0.0 | 3.2 | 0.00 | 0.00 | 0.00 | 94 | 1018.9 |
| 20260906074027 | 17 | 0 | 0.0 | 4.8 | 0.00 | 0.00 | 0.00 | 94 | 1019.0 |
| 20260906073529 | 17 | 82 | 0.0 | 4.8 | 0.00 | 0.00 | 0.00 | 94 | 1018.8 |
| 20260906073048 | 17 | 65 | 0.0 | 3.2 | 0.00 | 0.00 | 0.00 | 94 | 1018.8 |
| 20260906072529 | 17 | 89 | 0.0 | 1.6 | 0.00 | 0.00 | 0.00 | 94 | 1019.1 |
| 20260906072029 | 17 | 0 | 0.0 | 4.8 | 0.00 | 0.00 | 0.00 | 94 | 1019.1 |
| 20260906071549 | 17 | 0 | 0.0 | 4.8 | 0.00 | 0.00 | 0.00 | 94 | 1019.1 |
| 20260906071029 | 17 | 0 | 0.0 | 3.2 | 0.00 | 0.00 | 0.00 | 93 | 1019.1 |
| 20260906070529 | 17 | 108 | 0.0 | 6.4 | 0.00 | 0.00 | 0.00 | 93 | 1019.2 |
| 20260906065528 | 17 | 0 | 0.0 | 1.6 | 0.00 | 0.00 | 0.00 | 93 | 1019.2 |
| 20260906065027 | 18 | 0 | 0.0 | 6.4 | 0.00 | 0.00 | 0.00 | 93 | 1019.3 |
| 20260906064549 | 18 | 0 | 0.0 | 6.4 | 0.00 | 0.00 | 0.00 | 93 | 1019.3 |
| 20260906064027 | 18 | 68 | 0.0 | 6.4 | 0.00 | 0.00 | 0.00 | 93 | 1019.4 |
| 20260906063528 | 18 | 0 | 0.0 | 6.4 | 0.00 | 0.00 | 0.00 | 93 | 1019.5 |
| 20260906063050 | 18 | 103 | 0.0 | 6.4 | 0.00 | 0.00 | 0.00 | 93 | 1019.5 |
| 20260906062528 | 18 | 56 | 0.0 | 6.4 | 0.00 | 0.00 | 0.00 | 93 | 1019.5 |
| 20260906062027 | 18 | 0 | 0.0 | 4.8 | 0.00 | 0.00 | 0.00 | 93 | 1019.5 |
| 20260906061552 | 18 | 62 | 0.0 | 3.2 | 0.00 | 0.00 | 0.00 | 93 | 1019.5 |
| 20260906061030 | 18 | 65 | 0.0 | 3.2 | 0.00 | 0.00 | 0.00 | 93 | 1019.5 |
| 20260906060528 | 18 | 0 | 0.0 | 1.6 | 0.00 | 0.00 | 0.00 | 93 | 1019.5 |
| 20260906060059 | 18 | 0 | 0.0 | 0.0 | 0.00 | 0.00 | 0.00 | 93 | 1019.5 |
| 20260906055527 | 18 | 0 | 0.0 | 0.0 | 0.00 | 0.00 | 0.00 | 92 | 1019.6 |
| 20260906055028 | 18 | 0 | 0.0 | 1.6 | 0.00 | 0.00 | 0.00 | 92 | 1019.5 |
| 20260906054550 | 18 | 0 | 0.0 | 1.6 | 0.00 | 0.00 | 0.00 | 92 | 1019.6 |
| 20260906054030 | 18 | 0 | 0.0 | 3.2 | 0.00 | 0.00 | 0.00 | 92 | 1019.3 |
| 20260906053529 | 18 | 0 | 0.0 | 3.2 | 0.00 | 0.00 | 0.00 | 92 | 1019.2 |
| 20260906053108 | 18 | 0 | 0.0 | 1.6 | 0.00 | 0.00 | 0.00 | 92 | 1019.3 |
| 20260906052528 | 18 | 0 | 0.0 | 1.6 | 0.00 | 0.00 | 0.00 | 92 | 1019.3 |
| 20260906052028 | 18 | 0 | 0.0 | 3.2 | 0.00 | 0.00 | 0.00 | 92 | 1019.4 |
| 20260906051548 | 18 | 0 | 0.0 | 3.2 | 0.00 | 0.00 | 0.00 | 91 | 1019.3 |
| 20260906051027 | 18 | 0 | 0.0 | 3.2 | 0.00 | 0.00 | 0.00 | 92 | 1019.2 |
| 20260906050528 | 18 | 38 | 0.0 | 3.2 | 0.00 | 0.00 | 0.00 | 92 | 1019.2 |
| 20260906050058 | 18 | 0 | 0.0 | 1.6 | 0.00 | 0.00 | 0.00 | 92 | 1019.0 |
| 20260906045528 | 18 | 30 | 0.0 | 3.2 | 0.00 | 0.00 | 0.00 | 91 | 1019.1 |
| 20260906045029 | 18 | 0 | 0.0 | 3.2 | 0.00 | 0.00 | 0.00 | 91 | 1019.0 |
| 20260906044548 | 18 | 0 | 0.0 | 1.6 | 0.00 | 0.00 | 0.00 | 91 | 1018.9 |
| 20260906044032 | 18 | 95 | 0.0 | 1.6 | 0.00 | 0.00 | 0.00 | 91 | 1018.9 |
| 20260906043529 | 19 | 0 | 0.0 | 3.2 | 0.00 | 0.00 | 0.00 | 91 | 1019.0 |
| 20260906043102 | 19 | 0 | 0.0 | 3.2 | 0.00 | 0.00 | 0.00 | 91 | 1018.8 |
| 20260906042527 | 19 | 0 | 0.0 | 1.6 | 0.00 | 0.00 | 0.00 | 91 | 1018.7 |
| 20260906042028 | 19 | 58 | 0.0 | 1.6 | 0.00 | 0.00 | 0.00 | 90 | 1018.8 |
| 20260906041600 | 19 | 0 | 0.0 | 1.6 | 0.00 | 0.00 | 0.00 | 90 | 1018.8 |
| 20260906041028 | 19 | 0 | 0.0 | 1.6 | 0.00 | 0.00 | 0.00 | 90 | 1018.9 |
| 20260906040526 | 19 | 0 | 0.0 | 1.6 | 0.00 | 0.00 | 0.00 | 90 | 1019.0 |
| 20260906040056 | 19 | 0 | 0.0 | 1.6 | 0.00 | 0.00 | 0.00 | 90 | 1019.0 |
| 20260906035529 | 19 | 0 | 0.0 | 1.6 | 0.00 | 0.00 | 0.00 | 90 | 1019.0 |
| 20260906035029 | 19 | 0 | 0.0 | 1.6 | 0.00 | 0.00 | 0.00 | 89 | 1018.9 |
| 20260906034548 | 20 | 0 | 0.0 | 1.6 | 0.00 | 0.00 | 0.00 | 89 | 1018.9 |
| 20260906034027 | 20 | 0 | 0.0 | 1.6 | 0.00 | 0.00 | 0.00 | 89 | 1018.9 |
| 20260906033527 | 20 | 0 | 0.0 | 3.2 | 0.00 | 0.00 | 0.00 | 88 | 1018.9 |
| 20260906033103 | 20 | 0 | 0.0 | 3.2 | 0.00 | 0.00 | 0.00 | 88 | 1018.9 |
| 20260906032528 | 20 | 113 | 0.0 | 3.2 | 0.00 | 0.00 | 0.00 | 88 | 1019.2 |
| 20260906032027 | 20 | 0 | 0.0 | 3.2 | 0.00 | 0.00 | 0.00 | 88 | 1019.0 |
| 20260906031553 | 20 | 0 | 0.0 | 1.6 | 0.00 | 0.00 | 0.00 | 87 | 1019.1 |
| 20260906031026 | 20 | 148 | 0.0 | 1.6 | 0.00 | 0.00 | 0.00 | 87 | 1019.1 |
| 20260906030527 | 20 | 0 | 0.0 | 1.6 | 0.00 | 0.00 | 0.00 | 87 | 1019.1 |
| 20260906030054 | 20 | 0 | 0.0 | 1.6 | 0.00 | 0.00 | 0.00 | 87 | 1019.1 |
| 20260906025528 | 20 | 0 | 0.0 | 1.6 | 0.00 | 0.00 | 0.00 | 87 | 1019.0 |
| 20260906025028 | 20 | 0 | 0.0 | 6.4 | 0.00 | 0.00 | 0.00 | 87 | 1019.0 |
| 20260906024556 | 20 | 136 | 0.0 | 6.4 | 0.00 | 0.00 | 0.00 | 86 | 1019.1 |
| 20260906024029 | 20 | 0 | 0.0 | 1.6 | 0.00 | 0.00 | 0.00 | 86 | 1019.2 |
| 20260906023530 | 20 | 0 | 0.0 | 1.6 | 0.00 | 0.00 | 0.00 | 86 | 1019.1 |
| 20260906023057 | 20 | 89 | 0.0 | 1.6 | 0.00 | 0.00 | 0.00 | 86 | 1019.1 |
| 20260906022528 | 20 | 0 | 0.0 | 1.6 | 0.00 | 0.00 | 0.00 | 86 | 1019.1 |
| 20260906022030 | 21 | 0 | 0.0 | 1.6 | 0.00 | 0.00 | 0.00 | 86 | 1018.9 |
| 20260906021558 | 21 | 98 | 0.0 | 3.2 | 0.00 | 0.00 | 0.00 | 85 | 1019.0 |
| 20260906021029 | 21 | 0 | 0.0 | 3.2 | 0.00 | 0.00 | 0.00 | 85 | 1019.0 |
| 20260906020527 | 21 | 0 | 0.0 | 3.2 | 0.00 | 0.00 | 0.00 | 85 | 1018.9 |
| 20260906020106 | 21 | 0 | 0.0 | 1.6 | 0.00 | 0.00 | 0.00 | 85 | 1019.0 |
| 20260906015528 | 21 | 0 | 0.0 | 1.6 | 0.00 | 0.00 | 0.00 | 84 | 1019.0 |
| 20260906015026 | 21 | 0 | 0.0 | 1.6 | 0.00 | 0.00 | 0.00 | 84 | 1019.0 |
| 20260906014602 | 21 | 0 | 0.0 | 1.6 | 0.00 | 0.00 | 0.00 | 84 | 1019.1 |
| 20260906014029 | 21 | 0 | 0.0 | 1.6 | 0.00 | 0.00 | 0.00 | 84 | 1019.0 |
| 20260906013528 | 21 | 0 | 0.0 | 1.6 | 0.00 | 0.00 | 0.00 | 83 | 1019.1 |
| 20260906013108 | 21 | 0 | 0.0 | 1.6 | 0.00 | 0.00 | 0.00 | 83 | 1018.9 |
| 20260906012529 | 21 | 0 | 0.0 | 1.6 | 0.00 | 0.00 | 0.00 | 83 | 1018.7 |
| 20260906012029 | 21 | 0 | 0.0 | 1.6 | 0.00 | 0.00 | 0.00 | 82 | 1018.6 |
| 20260906011601 | 21 | 106 | 0.0 | 1.6 | 0.00 | 0.00 | 0.00 | 82 | 1018.5 |
| 20260906011028 | 22 | 0 | 0.0 | 1.6 | 0.00 | 0.00 | 0.00 | 82 | 1018.3 |
| 20260906010527 | 22 | 0 | 0.0 | 1.6 | 0.00 | 0.00 | 0.00 | 81 | 1018.2 |
| 20260906010048 | 22 | 0 | 0.0 | 1.6 | 0.00 | 0.00 | 0.00 | 80 | 1018.2 |
| 20260906005528 | 22 | 0 | 0.0 | 3.2 | 0.00 | 0.00 | 0.00 | 79 | 1018.0 |
| 20260906005031 | 22 | 0 | 0.0 | 3.2 | 0.00 | 0.00 | 0.00 | 79 | 1017.9 |
| 20260906004543 | 23 | 110 | 0.0 | 1.6 | 0.00 | 0.00 | 0.00 | 78 | 1017.7 |
| 20260906004033 | 23 | 0 | 0.0 | 4.8 | 0.00 | 0.00 | 0.00 | 78 | 1017.6 |
| 20260906003528 | 23 | 134 | 0.0 | 4.8 | 0.00 | 0.00 | 0.00 | 77 | 1017.4 |
| 20260906003046 | 23 | 101 | 0.0 | 1.6 | 0.00 | 0.00 | 0.00 | 76 | 1017.2 |
| 20260906002529 | 23 | 141 | 0.0 | 4.8 | 0.00 | 0.00 | 0.00 | 76 | 1017.3 |
| 20260906002027 | 23 | 119 | 0.0 | 11.3 | 0.00 | 0.00 | 0.00 | 75 | 1017.2 |
| 20260906001551 | 23 | 0 | 1.6 | 11.3 | 0.00 | 0.00 | 0.00 | 74 | 1017.2 |
| 20260906001029 | 24 | 118 | 1.6 | 11.3 | 0.00 | 0.00 | 0.00 | 74 | 1017.2 |
| 20260906000528 | 24 | 113 | 3.2 | 11.3 | 0.00 | 0.00 | 0.00 | 73 | 1017.1 |
| 20260905235529 | 24 | 96 | 3.2 | 8.0 | 0.00 | 0.00 | 0.00 | 73 | 1016.8 |
| 20260905235027 | 24 | 109 | 3.2 | 11.3 | 0.00 | 0.00 | 0.00 | 72 | 1016.8 |
| 20260905234550 | 25 | 114 | 3.2 | 11.3 | 0.00 | 0.00 | 0.00 | 72 | 1016.7 |
| 20260905234027 | 25 | 97 | 3.2 | 11.3 | 0.00 | 0.00 | 0.00 | 71 | 1016.6 |
| 20260905233529 | 25 | 138 | 3.2 | 12.9 | 0.00 | 0.00 | 0.00 | 71 | 1016.6 |
| 20260905233049 | 25 | 4 | 3.2 | 12.9 | 0.00 | 0.00 | 0.00 | 71 | 1016.6 |
| 20260905232529 | 25 | 169 | 3.2 | 12.9 | 0.00 | 0.00 | 0.00 | 72 | 1016.5 |
| 20260905232030 | 25 | 153 | 3.2 | 12.9 | 0.00 | 0.00 | 0.00 | 72 | 1016.3 |
| 20260905231550 | 25 | 124 | 3.2 | 12.9 | 0.00 | 0.00 | 0.00 | 71 | 1016.4 |
| 20260905231029 | 25 | 125 | 3.2 | 12.9 | 0.00 | 0.00 | 0.00 | 71 | 1016.3 |
| 20260905230526 | 25 | 113 | 3.2 | 12.9 | 0.00 | 0.00 | 0.00 | 71 | 1016.4 |
| 20260905230058 | 25 | 180 | 3.2 | 9.7 | 0.00 | 0.00 | 0.00 | 71 | 1016.4 |
| 20260905225532 | 25 | 189 | 3.2 | 9.7 | 0.00 | 0.00 | 0.00 | 70 | 1016.4 |
| 20260905225029 | 25 | 133 | 3.2 | 14.5 | 0.00 | 0.00 | 0.00 | 71 | 1016.5 |
| 20260905224552 | 25 | 58 | 1.6 | 14.5 | 0.00 | 0.00 | 0.00 | 70 | 1016.6 |
| 20260905224028 | 26 | 134 | 4.8 | 14.5 | 0.00 | 0.00 | 0.00 | 69 | 1016.7 |
| 20260905223527 | 26 | 108 | 1.6 | 12.9 | 0.00 | 0.00 | 0.00 | 70 | 1016.8 |
| 20260905223050 | 25 | 71 | 4.8 | 14.5 | 0.00 | 0.00 | 0.00 | 70 | 1016.7 |
| 20260905222530 | 26 | 89 | 3.2 | 14.5 | 0.00 | 0.00 | 0.00 | 70 | 1016.6 |
| 20260905222027 | 26 | 38 | 3.2 | 14.5 | 0.00 | 0.00 | 0.00 | 69 | 1016.8 |
| 20260905221556 | 26 | 124 | 1.6 | 12.9 | 0.00 | 0.00 | 0.00 | 69 | 1016.8 |
| 20260905221028 | 26 | 62 | 3.2 | 16.1 | 0.00 | 0.00 | 0.00 | 68 | 1016.9 |
| 20260905220528 | 26 | 15 | 4.8 | 16.1 | 0.00 | 0.00 | 0.00 | 69 | 1016.9 |
| 20260905220100 | 26 | 53 | 3.2 | 16.1 | 0.00 | 0.00 | 0.00 | 68 | 1016.9 |
| 20260905215528 | 26 | 46 | 4.8 | 20.9 | 0.00 | 0.00 | 0.00 | 69 | 1017.1 |
| 20260905215032 | 26 | 115 | 6.4 | 20.9 | 0.00 | 0.00 | 0.00 | 69 | 1017.3 |
| 20260905214554 | 26 | 25 | 4.8 | 16.1 | 0.00 | 0.00 | 0.00 | 68 | 1017.4 |
| 20260905214029 | 26 | 13 | 3.2 | 9.7 | 0.00 | 0.00 | 0.00 | 68 | 1017.5 |
| 20260905213528 | 26 | 56 | 1.6 | 9.7 | 0.00 | 0.00 | 0.00 | 68 | 1017.7 |
| 20260905213048 | 26 | 185 | 4.8 | 16.1 | 0.00 | 0.00 | 0.00 | 68 | 1017.8 |
| 20260905212528 | 26 | 65 | 4.8 | 16.1 | 0.00 | 0.00 | 0.00 | 68 | 1017.8 |
| 20260905212030 | 26 | 46 | 4.8 | 11.3 | 0.00 | 0.00 | 0.00 | 67 | 1017.8 |
| 20260905211558 | 26 | 149 | 3.2 | 11.3 | 0.00 | 0.00 | 0.00 | 68 | 1018.0 |
| 20260905211027 | 26 | 133 | 3.2 | 11.3 | 0.00 | 0.00 | 0.00 | 67 | 1018.2 |
| 20260905210528 | 26 | 53 | 3.2 | 11.3 | 0.00 | 0.00 | 0.00 | 67 | 1018.2 |
| 20260905205527 | 26 | 66 | 4.8 | 12.9 | 0.00 | 0.00 | 0.00 | 66 | 1018.4 |
| 20260905205028 | 26 | 51 | 4.8 | 12.9 | 0.00 | 0.00 | 0.00 | 68 | 1018.6 |
| 20260905204603 | 26 | 36 | 6.4 | 12.9 | 0.00 | 0.00 | 0.00 | 67 | 1018.7 |
| 20260905204028 | 26 | 16 | 0.0 | 14.5 | 0.00 | 0.00 | 0.00 | 68 | 1018.6 |
| 20260905203529 | 26 | 330 | 4.8 | 14.5 | 0.00 | 0.00 | 0.00 | 68 | 1018.5 |
| 20260905203055 | 26 | 96 | 4.8 | 12.9 | 0.00 | 0.00 | 0.00 | 67 | 1018.7 |
| 20260905202533 | 26 | 345 | 3.2 | 12.9 | 0.00 | 0.00 | 0.00 | 68 | 1018.5 |
| 20260905202028 | 26 | 32 | 3.2 | 12.9 | 0.00 | 0.00 | 0.00 | 70 | 1018.5 |
| 20260905201548 | 26 | 86 | 4.8 | 12.9 | 0.00 | 0.00 | 0.00 | 67 | 1018.6 |